Location: Cluny
(50.9333°N, 112.8167°W)
Time: 03:29:49
(UTC-06:00)

Amateur Radio Satellites - All Passes

Search period start: 26 October 2014 02:59
Search period end: 27 October 2014 02:59
Location: Cluny, 50.9333°N, 112.8167°W

Satellite Date Start Highest point End Downlink Frequencies (MHz)
Time Altitude Azimuth
Uribyol 2 26 Oct 03:09:58 03:14:38 32° 95° (E) 03:19:16 436.500 FM
ITAMSAT 1 26 Oct 03:16:18 03:21:03 34° 96° (E) 03:25:47 435.822 SSB
PCSat 26 Oct 03:19:40 03:22:31 15° 104° (ESE) 03:25:22 145.825 MHz
OPAL 26 Oct 03:40:13 03:42:43 14° 48° (NE) 03:45:12 ?
Oscar 19 26 Oct 03:41:03 03:46:11 72° 288° (WNW) 03:51:16 437.125 CW, 437.150 USB
Gurwin Techsat 1B 26 Oct 03:43:55 03:48:45 34° 95° (E) 03:53:32 435.225 FM
JAS-1B 26 Oct 03:51:58 03:58:27 81° 288° (WNW) 04:06:11 435.800 - 435.900 CW/SSB
RS-15 26 Oct 03:52:46 04:02:55 40° 3° (N) 04:13:18 29.354 - 29.394 USB, Beacon 29.352 USB
TMSAT-1 26 Oct 03:54:19 03:59:03 32° 94° (E) 04:03:45 436.925 FM
AO-27 26 Oct 04:02:04 04:07:21 79° 105° (ESE) 04:12:35 436.795 MHz FM
AO-Echo 26 Oct 04:11:04 04:16:22 70° 289° (WNW) 04:21:40 ?
AO-7 26 Oct 04:12:37 04:17:39 17° 84° (E) 04:22:39 29.400 - 29.500 MHz
Oscar 16 26 Oct 04:27:30 04:32:02 32° 298° (WNW) 04:36:31 437.025 USB, Beacon 2401.1428
Sapphire 26 Oct 04:37:30 04:42:42 51° 118° (ESE) 04:47:57 437.095 MHz 1200 baud AX-25 AFSK
Uribyol 2 26 Oct 04:49:19 04:54:16 44° 294° (WNW) 04:59:10 436.500 FM
ITAMSAT 1 26 Oct 04:55:44 05:00:39 42° 295° (WNW) 05:05:32 435.822 SSB
PCSat 26 Oct 04:59:38 05:05:02 77° 124° (ESE) 05:10:29 145.825 MHz
OPAL 26 Oct 05:15:39 05:20:43 65° 68° (ENE) 05:25:45 ?
Oscar 19 26 Oct 05:22:00 05:24:41 15° 309° (NW) 05:27:22 437.125 CW, 437.150 USB
Gurwin Techsat 1B 26 Oct 05:23:49 05:28:50 43° 295° (WNW) 05:33:50 435.225 FM
STRAND 1 26 Oct 05:26:46 05:29:15 14° 50° (NE) 05:31:45 ?
TMSAT-1 26 Oct 05:34:05 05:39:08 46° 294° (WNW) 05:44:10 436.925 FM
AO-27 26 Oct 05:42:31 05:46:18 21° 305° (NW) 05:50:04 436.795 MHz FM
JAS-1B 26 Oct 05:43:55 05:48:26 21° 308° (NW) 05:53:26 435.800 - 435.900 CW/SSB
JAS-2 26 Oct 05:44:51 05:51:01 25° 86° (E) 05:57:12 435.800 - 435.900 CW/SSB, 435.910 FM
AO-Echo 26 Oct 05:51:23 05:54:16 15° 308° (NW) 05:57:09 ?
Uosat F 26 Oct 05:57:15 06:02:15 57° 101° (ESE) 06:07:13 435.120 FM
AO-7 26 Oct 06:03:42 06:12:02 69° 106° (ESE) 06:20:21 29.400 - 29.500 MHz
RS-15 26 Oct 06:06:52 06:17:49 61° 35° (NE) 06:29:08 29.354 - 29.394 USB, Beacon 29.352 USB
Hamsat 26 Oct 06:12:41 06:14:55 14° 88° (E) 06:17:09 145.90 MHz
Sapphire 26 Oct 06:21:15 06:26:19 39° 320° (NW) 06:31:25 437.095 MHz 1200 baud AX-25 AFSK
PCSat 26 Oct 06:44:17 06:49:01 30° 326° (NW) 06:53:46 145.825 MHz
OPAL 26 Oct 06:56:07 07:00:02 22° 266° (W) 07:03:56 ?
STRAND 1 26 Oct 07:02:27 07:07:32 66° 70° (ENE) 07:12:40 ?
Saudisat 1A 26 Oct 07:05:44 07:07:08 11° 109° (ESE) 07:08:33 436.775 MHz
TMSAT-1 26 Oct 07:17:45 07:17:50 10° 315° (NW) 07:17:55 436.925 FM
JAS-2 26 Oct 07:29:07 07:36:53 89° 287° (WNW) 07:44:46 435.800 - 435.900 CW/SSB, 435.910 FM
Uosat F 26 Oct 07:36:37 07:40:44 26° 301° (WNW) 07:44:50 435.120 FM
Hamsat 26 Oct 07:47:11 07:51:23 73° 286° (WNW) 07:55:34 145.90 MHz
MaSat-1 26 Oct 07:55:12 07:56:34 13° 39° (NE) 07:57:52 437.345 MHz
AO-7 26 Oct 07:56:59 08:04:24 38° 308° (NW) 08:11:49 29.400 - 29.500 MHz
SO-67 26 Oct 07:58:01 08:00:45 21° 93° (E) 08:03:28 435.3500 MHz FM
AO-40 26 Oct 08:07:16 02:59:19 26° 219° (SW) 08:18:04 Beacon 2401.320
Sapphire 26 Oct 08:07:47 08:11:16 17° 344° (NNW) 08:14:46 437.095 MHz 1200 baud AX-25 AFSK
RS-15 26 Oct 08:19:35 08:30:20 59° 242° (WSW) 08:41:32 29.354 - 29.394 USB, Beacon 29.352 USB
PCSat 26 Oct 08:31:06 08:34:14 15° 351° (N) 08:37:23 145.825 MHz
Saudisat 1A 26 Oct 08:41:32 08:45:55 72° 128° (SE) 08:50:20 436.775 MHz
STRAND 1 26 Oct 08:43:22 08:47:13 21° 270° (W) 08:51:05 ?
HO-68 26 Oct 09:00:46 09:05:02 16° 84° (E) 09:09:16 435.675 MHz FM
JAS-2 26 Oct 09:14:55 09:21:04 28° 307° (NW) 09:27:21 435.800 - 435.900 CW/SSB, 435.910 FM
Hamsat 26 Oct 09:25:25 09:26:35 11° 305° (NW) 09:27:46 145.90 MHz
MaSat-1 26 Oct 09:29:51 09:32:29 48° 242° (WSW) 09:34:54 437.345 MHz
SO-67 26 Oct 09:30:41 09:33:47 31° 291° (WNW) 09:36:52 435.3500 MHz FM
AO-7 26 Oct 09:51:01 09:54:56 14° 333° (NNW) 09:58:51 29.400 - 29.500 MHz
Sapphire 26 Oct 09:53:42 09:56:56 16° 11° (N) 10:00:10 437.095 MHz 1200 baud AX-25 AFSK
Oscar 11 26 Oct 10:09:03 10:11:25 14° 88° (E) 10:13:46 145.825 FM, Beacon 2401.500 USB
PCSat 26 Oct 10:16:15 10:19:52 18° 18° (NNE) 10:23:29 145.825 MHz
Saudisat 1A 26 Oct 10:22:06 10:25:54 27° 330° (NNW) 10:29:43 436.775 MHz
RS-15 26 Oct 10:34:33 10:40:09 15° 266° (W) 10:45:52 29.354 - 29.394 USB, Beacon 29.352 USB
HO-68 26 Oct 10:46:48 10:54:02 73° 105° (ESE) 11:01:13 435.675 MHz FM
ZACube-1 26 Oct 11:02:23 11:05:40 21° 91° (E) 11:08:53 437.345 MHz
UKube-1 26 Oct 11:03:48 11:08:02 47° 100° (E) 11:12:15 145.840 MHz, 145.915 MHz
KITSAT 1 26 Oct 11:15:34 11:20:04 16° 99° (E) 11:24:34 435.175 FM
Sapphire 26 Oct 11:37:13 11:42:05 32° 36° (NE) 11:46:56 437.095 MHz 1200 baud AX-25 AFSK
Oscar 11 26 Oct 11:43:49 11:48:08 74° 287° (WNW) 11:52:26 145.825 FM, Beacon 2401.500 USB
FUNcube-1 26 Oct 11:46:08 11:50:21 54° 100° (E) 11:54:28 145.950 - 145.970 MHz USB
PCSat 26 Oct 11:59:33 12:04:44 43° 42° (NE) 12:09:53 145.825 MHz
Saudisat 1A 26 Oct 12:04:24 12:06:52 15° 353° (N) 12:09:21 436.775 MHz
Oscar 16 26 Oct 12:32:35 12:36:14 20° 56° (NE) 12:39:54 437.025 USB, Beacon 2401.1428
HO-68 26 Oct 12:35:06 12:41:14 32° 307° (NW) 12:47:22 435.675 MHz FM
ZACube-1 26 Oct 12:38:13 12:42:21 47° 291° (WNW) 12:46:23 437.345 MHz
UKube-1 26 Oct 12:40:27 12:44:00 24° 299° (WNW) 12:47:31 145.840 MHz, 145.915 MHz
ISS 26 Oct 12:43:20 12:44:59 13° 138° (SE) 12:46:38 145.800 FM
JAS-1B 26 Oct 12:54:40 12:59:25 28° 57° (ENE) 13:04:11 435.800 - 435.900 CW/SSB
Uribyol 2 26 Oct 12:56:08 12:59:14 16° 52° (NE) 13:02:19 436.500 FM
SO-50 26 Oct 13:00:37 13:04:20 26° 116° (ESE) 13:08:10 436.795 FM
ITAMSAT 1 26 Oct 13:02:25 13:05:41 17° 53° (NE) 13:08:56 435.822 SSB
KITSAT 1 26 Oct 13:05:59 13:13:56 65° 121° (ESE) 13:21:55 435.175 FM
Sapphire 26 Oct 13:20:33 13:25:58 69° 238° (WSW) 13:31:21 437.095 MHz 1200 baud AX-25 AFSK
Oscar 11 26 Oct 13:22:01 13:23:34 12° 306° (NW) 13:25:08 145.825 FM, Beacon 2401.500 USB
FUNcube-1 26 Oct 13:23:15 13:26:24 20° 300° (WNW) 13:29:30 145.950 - 145.970 MHz USB
Oscar 19 26 Oct 13:24:06 13:28:59 45° 66° (ENE) 13:33:52 437.125 CW, 437.150 USB
AO-7 26 Oct 13:29:14 13:33:26 15° 29° (NNE) 13:37:38 29.400 - 29.500 MHz
Gurwin Techsat 1B 26 Oct 13:32:45 13:36:05 17° 53° (NE) 13:39:25 435.225 FM
TMSAT-1 26 Oct 13:43:03 13:46:10 16° 52° (NE) 13:49:18 436.925 FM
PCSat 26 Oct 13:43:04 13:48:14 45° 243° (WSW) 13:53:21 145.825 MHz
Saudisat 1A 26 Oct 13:45:04 13:48:06 18° 18° (NNE) 13:51:07 436.775 MHz
AO-27 26 Oct 13:46:41 13:51:21 34° 62° (ENE) 13:56:02 436.795 MHz FM
AO-Echo 26 Oct 13:50:46 13:55:25 41° 65° (ENE) 14:00:14 ?
Oscar 16 26 Oct 14:09:52 14:15:02 80° 256° (WSW) 14:20:13 437.025 USB, Beacon 2401.1428
UOSAT-12 26 Oct 14:15:39 14:18:26 16° 111° (ESE) 14:21:14 437.025 FM, 437.400 FM
ISS 26 Oct 14:17:51 14:21:06 51° 156° (SSE) 14:24:22 145.800 FM
HO-68 26 Oct 14:26:11 14:26:48 10° 331° (NNW) 14:27:25 435.675 MHz FM
Uribyol 2 26 Oct 14:32:41 14:37:55 78° 72° (ENE) 14:43:10 436.500 FM
ITAMSAT 1 26 Oct 14:39:12 14:44:26 83° 73° (ENE) 14:49:42 435.822 SSB
SO-50 26 Oct 14:40:04 14:44:35 60° 317° (NW) 14:49:15 436.795 FM
JAS-1B 26 Oct 14:44:10 14:49:51 56° 259° (W) 14:55:29 435.800 - 435.900 CW/SSB
KITSAT 1 26 Oct 15:02:01 15:09:46 47° 325° (NW) 15:17:32 435.175 FM
Oscar 19 26 Oct 15:03:58 15:08:30 31° 266° (W) 15:13:03 437.125 CW, 437.150 USB
Sapphire 26 Oct 15:06:09 15:08:24 13° 258° (WSW) 15:10:39 437.095 MHz 1200 baud AX-25 AFSK
Gurwin Techsat 1B 26 Oct 15:09:59 15:15:18 83° 73° (ENE) 15:20:40 435.225 FM
AO-7 26 Oct 15:16:34 15:24:05 41° 53° (NE) 15:31:37 29.400 - 29.500 MHz
TMSAT-1 26 Oct 15:19:59 15:25:17 77° 72° (ENE) 15:30:37 436.925 FM
Saudisat 1A 26 Oct 15:24:21 15:28:40 48° 41° (NE) 15:32:58 436.775 MHz
AO-27 26 Oct 15:25:50 15:30:47 43° 262° (W) 15:35:47 436.795 MHz FM
AO-Echo 26 Oct 15:29:51 15:34:18 33° 266° (W) 15:38:55 ?
Uosat F 26 Oct 15:38:17 15:42:14 24° 58° (ENE) 15:46:11 435.120 FM
Oscar 16 26 Oct 15:52:56 15:55:15 13° 275° (W) 15:57:35 437.025 USB, Beacon 2401.1428
UOSAT-12 26 Oct 15:53:13 15:57:54 87° 130° (SE) 16:02:41 437.025 FM, 437.400 FM
ISS 26 Oct 15:54:24 15:57:45 78° 356° (N) 16:01:06 145.800 FM
JAS-2 26 Oct 16:04:10 16:08:36 20° 46° (NE) 16:13:22 435.800 - 435.900 CW/SSB, 435.910 FM
Uribyol 2 26 Oct 16:14:29 16:18:01 18° 271° (W) 16:21:34 436.500 FM
ITAMSAT 1 26 Oct 16:21:16 16:24:36 17° 272° (W) 16:27:58 435.822 SSB
SO-50 26 Oct 16:22:33 16:26:04 21° 340° (NNW) 16:29:40 436.795 FM
Gurwin Techsat 1B 26 Oct 16:52:31 16:55:58 17° 272° (W) 16:59:25 435.225 FM
KITSAT 1 26 Oct 17:00:31 17:07:18 28° 353° (N) 17:14:04 435.175 FM
TMSAT-1 26 Oct 17:02:11 17:05:50 19° 272° (W) 17:09:30 436.925 FM
Saudisat 1A 26 Oct 17:04:11 17:08:07 31° 241° (WSW) 17:12:01 436.775 MHz
AO-7 26 Oct 17:08:23 17:16:34 64° 255° (WSW) 17:24:50 29.400 - 29.500 MHz
Hamsat 26 Oct 17:10:40 17:13:44 20° 61° (ENE) 17:16:48 145.90 MHz
Uosat F 26 Oct 17:15:39 17:20:38 63° 258° (WSW) 17:25:40 435.120 FM
ISS 26 Oct 17:31:09 17:34:30 77° 196° (SSW) 17:37:50 145.800 FM
UOSAT-12 26 Oct 17:34:39 17:38:38 26° 332° (NNW) 17:42:40 437.025 FM, 437.400 FM
JAS-2 26 Oct 17:46:12 17:52:23 72° 70° (ENE) 17:59:28 435.800 - 435.900 CW/SSB, 435.910 FM
SO-50 26 Oct 18:05:23 18:08:19 16° 5° (N) 18:11:17 436.795 FM
SO-67 26 Oct 18:35:52 18:38:13 17° 63° (ENE) 18:40:34 435.3500 MHz FM
Hamsat 26 Oct 18:45:15 18:49:22 54° 260° (W) 18:53:29 145.90 MHz
KITSAT 1 26 Oct 18:58:01 19:05:16 34° 22° (NNE) 19:12:29 435.175 FM
OPAL 26 Oct 18:59:14 19:04:12 64° 105° (ESE) 19:09:06 ?
AO-7 26 Oct 19:06:49 19:11:08 15° 278° (W) 19:15:28 29.400 - 29.500 MHz
ISS 26 Oct 19:08:08 19:10:52 23° 215° (SW) 19:13:35 145.800 FM
STRAND 1 26 Oct 19:09:14 19:12:15 15° 87° (E) 19:15:14 ?
UOSAT-12 26 Oct 19:17:24 19:20:19 16° 356° (N) 19:23:14 437.025 FM, 437.400 FM
JAS-2 26 Oct 19:33:06 19:38:14 26° 273° (W) 19:43:54 435.800 - 435.900 CW/SSB, 435.910 FM
HO-68 26 Oct 19:34:56 19:40:30 25° 49° (NE) 19:46:05 435.675 MHz FM
SO-50 26 Oct 19:46:16 19:50:23 27° 29° (NNE) 19:54:33 436.795 FM
SO-67 26 Oct 20:07:39 20:10:55 41° 262° (W) 20:14:14 435.3500 MHz FM
UKube-1 26 Oct 20:30:49 20:32:44 13° 54° (NE) 20:34:39 145.840 MHz, 145.915 MHz
OPAL 26 Oct 20:38:48 20:42:42 23° 305° (NW) 20:46:33 ?
RS-15 26 Oct 20:44:28 20:49:19 14° 93° (E) 20:54:10 29.354 - 29.394 USB, Beacon 29.352 USB
STRAND 1 26 Oct 20:46:58 20:52:10 89° 286° (WNW) 20:57:20 ?
KITSAT 1 26 Oct 20:53:50 21:01:58 77° 48° (NE) 21:10:03 435.175 FM
UOSAT-12 26 Oct 20:58:30 21:02:08 21° 21° (NNE) 21:05:45 437.025 FM, 437.400 FM
Oscar 11 26 Oct 21:08:38 21:11:59 22° 62° (ENE) 21:15:20 145.825 FM, Beacon 2401.500 USB
FUNcube-1 26 Oct 21:13:27 21:15:42 14° 56° (NE) 21:17:55 145.950 - 145.970 MHz USB
HO-68 26 Oct 21:20:11 21:27:22 87° 71° (ENE) 21:34:37 435.675 MHz FM
SO-50 26 Oct 21:26:39 21:31:30 85° 230° (SW) 21:36:23 436.795 FM
ZACube-1 26 Oct 22:03:12 22:07:18 34° 66° (ENE) 22:11:21 437.345 MHz
UKube-1 26 Oct 22:03:51 22:08:12 78° 73° (ENE) 22:12:36 145.840 MHz, 145.915 MHz
STRAND 1 26 Oct 22:27:20 22:30:41 18° 306° (NW) 22:34:01 ?
UOSAT-12 26 Oct 22:38:28 22:43:11 61° 44° (NE) 22:47:50 437.025 FM, 437.400 FM
Oscar 11 26 Oct 22:43:41 22:47:53 50° 260° (W) 22:52:07 145.825 FM, Beacon 2401.500 USB
FUNcube-1 26 Oct 22:46:51 22:51:25 82° 74° (ENE) 22:55:54 145.950 - 145.970 MHz USB
RS-15 26 Oct 22:48:24 22:58:58 57° 117° (ESE) 23:09:31 29.354 - 29.394 USB, Beacon 29.352 USB
KITSAT 1 26 Oct 22:49:49 22:56:45 33° 251° (WSW) 23:03:40 435.175 FM
SO-50 26 Oct 23:08:31 23:11:24 16° 249° (WSW) 23:14:18 436.795 FM
HO-68 26 Oct 23:10:37 23:16:00 22° 271° (W) 23:21:26 435.675 MHz FM
MaSat-1 26 Oct 23:12:26 23:13:59 12° 107° (ESE) 23:15:29 437.345 MHz
ZACube-1 26 Oct 23:39:34 23:43:42 33° 264° (W) 23:47:48 437.345 MHz
UKube-1 26 Oct 23:42:38 23:44:57 14° 272° (W) 23:47:17 145.840 MHz, 145.915 MHz
UOSAT-12 27 Oct 00:19:07 00:23:02 26° 244° (WSW) 00:26:54 437.025 FM, 437.400 FM
FUNcube-1 27 Oct 00:25:58 00:28:21 14° 273° (W) 00:30:44 145.950 - 145.970 MHz USB
MaSat-1 27 Oct 00:45:14 00:49:09 81° 302° (WNW) 00:52:40 437.345 MHz
RS-15 27 Oct 01:00:35 01:11:23 61° 325° (NW) 01:22:19 29.354 - 29.394 USB, Beacon 29.352 USB
Oscar 19 27 Oct 01:33:52 01:34:12 10° 83° (E) 01:34:32 437.125 CW, 437.150 USB
Oscar 16 27 Oct 02:16:55 02:21:08 25° 92° (E) 02:25:20 437.025 USB, Beacon 2401.1428
JAS-1B 27 Oct 02:20:37 02:26:29 31° 94° (E) 02:33:13 435.800 - 435.900 CW/SSB
MaSat-1 27 Oct 02:23:20 02:25:10 13° 320° (NW) 02:26:55 437.345 MHz
Uribyol 2 27 Oct 02:41:14 02:44:55 19° 89° (E) 02:48:34 436.500 FM
ITAMSAT 1 27 Oct 02:47:47 02:51:38 21° 90° (E) 02:55:29 435.822 SSB
PCSat 27 Oct 02:51:13 02:52:11 11° 101° (E) 02:53:10 145.825 MHz
